Orbital Elements at Epoch 2459000.5 (2020-May-31.0) TDB
Reference: JPL 6 (heliocentric ecliptic J2000)
Element | Value | Uncertainty (1-sigma) | Units |
e | .1068387707811988 | 5.6517e-08 | |
a | 3.004305078689478 | 4.0135e-08 | au |
q | 2.683328817030582 | 1.7044e-07 | au |
i | 12.15584240969293 | 6.3798e-06 | deg |
node | 140.4404436307053 | 3.3419e-05 | deg |
peri | 322.5411036089658 | 4.947e-05 | deg |
M | 192.8225702098324 | 3.7441e-05 | deg |
tp | 2459883.762145605119 (2022-Oct-31.26214560) | 0.0002051 | TDB |
period | 1902.017352563367 5.21 | 3.8114e-05 1.044e-07 | d yr |
n | .189272721153056 | 3.7928e-09 | deg/d |
Q | 3.325281340348375 | 4.4423e-08 | au |
|
| | Orbit Determination Parameters
Additional Information
|